This demonstration page uses our WeatherBlox Daily Observations layout. Learn more.

Left ArrowRight Arrow

Hourly Observations for September 21, 2015

Temp ( °F °C ) Dew Point ( °F °C ) Humidity (%) Winds ( mph kmh ) Pressure ( in mb ) Visibility ( mi km ) Precip ( " mm )
12:54 am 00:54 Cloudy 73 23 64 18 74 74 NNE 12 19 30.03 1017 10 16 0.00 0.00
12:59 am 00:59 Cloudy 74 23.3 65 18.3 74 74 NNE 10 17 30.02 1017 10 16 0.00 0.00
1:59 am 01:59 Cloudy 74 23.3 65 18.3 74 74 NE 9 15 30.01 1016 10 16 0.00 0.00
2:59 am 02:59 Cloudy 74 23.3 65 18.3 74 74 NNE 9 15 30.00 1016 10 16 0.00 0.00
3:59 am 03:59 Partly Cloudy 73 22.8 63 17.2 71 71 NNE 9 15 29.99 1016 10 16 0.00 0.00
4:59 am 04:59 Mostly Cloudy 73 22.8 63 17.2 71 71 NE 8 13 29.99 1016 10 16 0.00 0.00
5:59 am 05:59 Cloudy 73 22.8 64 17.8 74 74 NNE 10 17 30.00 1016 10 16 0.00 0.00
6:59 am 06:59 Mostly Cloudy 73 22.8 65 18.3 76 76 NNE 10 17 30.02 1017 10 16 0.00 0.00
7:59 am 07:59 Mostly Cloudy 74 23.3 66 18.9 76 76 NE 12 19 30.04 1017 10 16 0.00 0.00
8:59 am 08:59 Cloudy 75 23.9 67 19.4 76 76 NNE 10 17 30.05 1018 9 14 0.00 0.00
9:59 am 09:59 Cloudy 75 23.9 68 20 79 79 N 10 17 30.07 1018 9 14 0.00 0.00
10:59 am 10:59 Cloudy 76 24.4 68 20 77 77 N 12 19 30.07 1018 8 13 0.00 0.00
11:59 am 11:59 Cloudy 77 25 70 21.1 79 79 NE 12 19 30.06 1018 8 13 0.01 0.25
12:59 pm 12:59 Mostly Cloudy 78 25.6 68 20 71 71 ENE 12 19 30.06 1018 8 13 0.00 0.00
1:59 pm 13:59 Cloudy 77 25 69 20.6 77 77 NE 13 20 30.05 1018 8 13 0.00 0.00
2:35 pm 14:35 Cloudy with Light Rain 74 23.3 69 20.6 85 85 ENE 14 22 30.06 1018 4 6 0.01 0.25
2:59 pm 14:59 Cloudy 75 23.9 69 20.6 82 82 ENE 15 24 30.05 1018 8 13 0.03 0.76
3:59 pm 15:59 Cloudy with Mist and Fog 74 23.3 66 18.9 76 76 ENE 20 31 30.06 1018 6 10 0.02 0.51
4:59 pm 16:59 Cloudy 75 23.9 65 18.3 71 71 ENE 20 31 30.06 1018 8 13 0.00 0.00
5:59 pm 17:59 Cloudy 74 23.3 65 18.3 74 74 ENE 17 28 30.06 1018 8 13 0.00 0.00
6:59 pm 18:59 Cloudy 74 23.3 64 17.8 71 71 E 16 26 30.07 1018 9 14 0.00 0.00
7:16 pm 19:16 Mostly Cloudy 74 23.3 64 17.8 71 71 ENE 13 20 30.06 1018 9 14 0.00 0.00
7:59 pm 19:59 Mostly Cloudy 74 23.3 64 17.8 71 71 NE 17 28 30.08 1019 9 14 0.00 0.00
8:59 pm 20:59 Mostly Cloudy 73 22.8 64 17.8 74 74 ENE 15 24 30.09 1019 10 16 0.00 0.00
9:59 pm 21:59 Cloudy 73 22.8 63 17.2 71 71 ENE 13 20 30.09 1019 10 16 0.00 0.00
10:59 pm 22:59 Cloudy 74 23.3 63 17.2 69 69 ENE 13 20 30.10 1019 10 16 0.00 0.00
11:59 pm 23:59 Cloudy 74 23.3 63 17.2 69 69 NE 14 22 30.09 1019 10 16 0.00 0.00

Powered by AerisWeather